Showing default

LEMUR 2 NIMBUS2000, 58899

Orbit data source: Space-Track

LEMUR 2 NIMBUS2000, 58899 is an American payload satellite in SSO that was launched on Wed, 31 Jan 2024 UTC via an ELECTRON launch vehicle from the Rocket Lab Launch Complex (RLLC). Payload-class satellites include a variety of spacecraft equipped with specific instruments for various scientific and technological missions. These include communications satellites like Starlink; space stations such as the ISS; scientific satellites like the Hubble; Earth observation satellites from companies like Planet Labs, Umbra, and HawkEye 360; GPS; miniature CubeSats for education and research; and military/defense satellites.

Loading next visibility...
Identifier
58899, 2024-022A
Orbit
SSO
Country
Flag of USUS
Related business
Manufacturer
Spire/Glasgow
Mission
Operational Commercial Early Warn
Bus & Motor
CUBESAT 3U, Unknown motor
Mass
~25 kg wet, ~25 kg dry
Launch date (UTC)
2024-01-31 (2 years ago)
Launch vehicle
ELECTRON
Launch site
Rocket Lab Launch Complex (RLLC)
Object type
Payload
Rocket body
Debris
Shape & HBR
Box + 2 Pan, 0.5 m
Radar Cross Section
0.146 m², Medium (>0.1 m² and < 1m²)

Expand to show TLE details & history
Last TLE update: 9 hours ago

TLE from 9 hours ago
0 LEMUR 2 NIMBUS2000
1 58899U 24022A   25286.90421242  .00017600  00000-0  59270-3 0  9996
2 58899  97.4357 129.9871 0009521 281.3448  78.6723 15.30782782 94470
Epoch: 2025-10-13T21:42Z
TLE epoch observation values (Epoch: 2025-10-13T21:42:03.953Z)
Latitude
Longitude
141.77033°
Altitude
475.304 km
Speed
7.629 km/s
True Right ascension
08h 39m 56s
True Declination
0° 00' 00"
Sunlit
Object was in daylight at epoch
Visualization orbit readout
Latitude
Unknown
Longitude
Unknown
Altitude
Unknown
Speed
Unknown
Apparent Right ascension
Unknown
Apparent Declination
Unknown
Sunlit
N/A
Visualization observer readout
Local Sidereal Time
00:43:48
Azimuth
Unknown
Elevation
Unknown
Doppler factor
Unknown
Orbital elements
Apogee altitude
476.949 km
Perigee altitude
463.908 km
Semi-major axis
6,848.565 km
Eccentricity
0.00095
Inclination
97.4357°
RAAN
129.9871°
Arg. of periapsis
281.3448°
True anomaly
78.7793°
Mean anomaly
78.6723°
Eccentric anomaly
78.7258°
Mean motion
3.82951 °/min
Orbital period
94.01 mins
BSTAR
0.0005927
Loading maneuver chart data...
Computing Atmospheric mass density...
Loading historical data...
Loading historical data...
Loading historical data...
Loading historical data...
Loading historical data...
Loading historical data...
Loading historical data...

Documentation

Showing up to 5 results
|